Flag for USA

Past Weather in Sandpoint, Idaho, USA — Yesterday and Last 2 Weeks

Now
79 °F

Sunny.


Feels Like: 78 °F
Forecast: 68 / 53 °F
Wind: 6 mph from East

Location: Sandpoint Airport

Current Time: Jul 6, 2020 at 5:28:14 pm

Latest Report: Jul 6, 2020 at 4:55 pm


Visibility: 10 mi

Pressure: 29.88 "Hg (27.79 "Hg at 636m altitude)

Humidity: 28%

Dew Point: 43 °F

Location of SandpointLocation

Past Weather in Sandpoint — Graph

°F

Sandpoint Temperature Yesterday

Maximum temperature yesterday: 77 °F (at 2:55 pm)
Minimum temperature yesterday: 43 °F (at 4:15 am)
Average temperature yesterday: 61 °F

High & Low Weather Summary for the Past Weeks

 TemperatureHumidityPressure
High86 °F (Jun 23, 2:55 pm)100% (Jun 22, 1:15 am)30.18 "Hg (Jun 22, 1:15 am)
Low39 °F (Jul 3, 5:15 am)22% (Jun 26, 5:15 pm)29.62 "Hg (Jun 27, 7:35 pm)
Average62 °F66%29.92 "Hg
* Reported Jun 21 4:15 pm — Jul 6 4:15 pm, Sandpoint. Weather by CustomWeather, © 2020

Note: Actual official high and low records may vary slightly from our data, if they occured in-between our weather recording intervals... More about our weather records

Sandpoint Weather History for the Previous 24 Hours

Scroll right to see more
 ConditionsComfort  
Time TempWeatherWind HumidityBarometerVisibility
4:15 pm
Mon, Jul 6
81 °FSunny.3 mph26%29.89 "Hg10 mi
3:55 pm79 °FSunny.8 mph28%29.90 "Hg10 mi
3:35 pm79 °FSunny.7 mph30%29.90 "Hg10 mi
3:15 pm79 °FSunny.9 mph28%29.91 "Hg10 mi
2:55 pm79 °FSunny.6 mph28%29.92 "Hg10 mi
2:35 pm79 °FSunny.3 mph28%29.92 "Hg10 mi
2:15 pm77 °FSunny.6 mph32%29.93 "Hg10 mi
1:55 pm77 °FSunny.7 mph34%29.94 "Hg10 mi
1:35 pm77 °FSunny.6 mph32%29.94 "Hg10 mi
12:55 pm75 °FSunny.6 mph36%29.96 "Hg10 mi
12:35 pm73 °FSunny.5 mph38%29.97 "Hg10 mi
12:15 pm73 °FSunny.5 mph38%29.97 "Hg10 mi
11:55 am72 °FSunny.5 mph41%29.98 "Hg10 mi
11:35 am72 °FSunny.No wind41%29.98 "Hg10 mi
11:15 am70 °FSunny.3 mph50%29.99 "Hg10 mi
10:55 am68 °FSunny.5 mph46%29.99 "Hg10 mi
10:35 am68 °FSunny.3 mph49%30.00 "Hg10 mi
10:15 am68 °FSunny.5 mph46%30.00 "Hg10 mi
9:55 am66 °FSunny.6 mph56%30.00 "Hg10 mi
9:35 am64 °FSunny.6 mph60%30.01 "Hg10 mi
9:15 am66 °FSunny.6 mph52%30.01 "Hg10 mi
8:55 am64 °FSunny.7 mph52%30.02 "Hg10 mi
8:35 am63 °FSunny.8 mph56%30.02 "Hg10 mi
8:15 am63 °FSunny.7 mph56%30.02 "Hg10 mi
7:55 am59 °FSunny.No wind63%30.02 "Hg10 mi
7:35 am57 °FSunny.No wind67%30.03 "Hg10 mi
7:15 am55 °FSunny.No wind72%30.03 "Hg10 mi
6:55 am54 °FSunny.No wind88%30.02 "Hg10 mi
6:35 am52 °FSunny.No wind88%30.02 "Hg10 mi
5:55 am46 °FSunny.No wind100%30.02 "Hg10 mi
5:35 am46 °FSunny.No wind93%30.02 "Hg10 mi
5:15 am45 °FSunny.No wind100%30.02 "Hg10 mi
4:55 am46 °FSunny.No wind93%30.02 "Hg10 mi
4:35 am45 °FClear.No wind100%30.01 "Hg10 mi
4:15 am46 °FClear.No wind93%30.01 "Hg10 mi
3:55 am46 °FClear.No wind93%30.01 "Hg10 mi
3:35 am46 °FClear.No wind93%30.01 "Hg10 mi
3:15 am46 °FClear.No wind93%30.01 "Hg10 mi
2:55 am46 °FClear.No wind93%30.01 "Hg10 mi
2:35 am46 °FClear.No wind100%30.01 "Hg10 mi
2:15 am48 °FClear.No wind94%30.01 "Hg10 mi
1:55 am48 °FClear.No wind87%30.01 "Hg10 mi
1:35 am50 °FClear.No wind82%30.01 "Hg10 mi
1:15 am50 °FClear.No wind88%30.01 "Hg10 mi
12:55 am50 °FClear.No wind88%30.01 "Hg10 mi
12:35 am50 °FClear.No wind88%30.01 "Hg10 mi
12:15 am52 °FClear.No wind77%30.01 "Hg10 mi
11:55 pm
Sun, Jul 5
52 °FClear.No wind82%30.00 "Hg10 mi
11:35 pm52 °FClear.No wind82%30.00 "Hg10 mi
11:15 pm54 °FClear.No wind77%30.00 "Hg10 mi
10:55 pm55 °FClear.No wind72%30.00 "Hg10 mi
10:35 pm55 °FClear.No wind72%30.00 "Hg10 mi
10:15 pm55 °FClear.No wind77%30.00 "Hg10 mi
9:55 pm55 °FClear.3 mph77%30.00 "Hg10 mi
9:35 pm59 °FClear.No wind72%30.00 "Hg10 mi
9:15 pm59 °FClear.No wind72%30.00 "Hg10 mi
8:55 pm59 °FClear.No wind72%30.00 "Hg10 mi
8:35 pm61 °FSunny.5 mph68%30.00 "Hg10 mi
8:15 pm63 °FSunny.5 mph59%30.00 "Hg10 mi
7:55 pm64 °FSunny.3 mph60%30.00 "Hg10 mi
7:35 pm70 °FSunny.No wind50%30.00 "Hg10 mi
7:15 pm75 °FSunny.3 mph29%30.00 "Hg10 mi
6:55 pm75 °FSunny.5 mph29%30.00 "Hg10 mi
6:35 pm77 °FSunny.No wind28%30.01 "Hg10 mi
6:15 pm77 °FSunny.6 mph26%30.01 "Hg10 mi
5:55 pm77 °FSunny.3 mph30%30.01 "Hg10 mi
5:35 pm77 °FSunny.5 mph28%30.01 "Hg10 mi
5:15 pm77 °FSunny.7 mph28%30.02 "Hg10 mi
Weather by CustomWeather, © 2020

See weather overview